Theta_e
287 286 285 284 283 281 281 281 280 280 280 280 280 280 280 279 278 277 277 276 277 277
286 285 283 282 282 281 281 281 280 280 280 279 279 278 278 278 277 276 276 276 276 276
285 284 283 282 281 280 280 280 279 279 279 278 278 277 277 276 276 276 275 276 275 275
284 283 282 281 281 280 280 279 279 278 278 277 277 276 276 275 275 275 274 275 274 274
283 282 281 280 280 280 279 279 278 278 278 277 276 275 275 275 275 274 274 274 274 273
282 281 280 280 279 279 278 278 278 278 277 276 276 276 275 275 275 274 273 273 273 273
281 281 280 279 279 278 278 277 277 277 276 275 275 275 276 275 274 273 273 273 273 272
281 280 280 279 279 278 277 277 277 276 275 275 275 276 275 275 274 273 273 273 273 273
281 280 279 279 278 277 277 276 276 276 275 274 275 280 280 276 274 274 273 272 272 272
280 279 279 278 277 277 276 277 276 275 275 274 274 282 281 279 275 274 272 272 272 272
280 280 278 278 277 277 277 276 275 275 275 274 274 282 282 280 275 273 273 272 272 272
281 280 278 278 277 277 276 275 275 275 275 274 274 282 282 280 274 273 272 272 272 271
282 281 279 278 277 277 277 276 275 275 275 275 274 280 282 280 274 272 272 272 272 275
282 281 280 279 278 277 276 275 274 274 274 274 273 273 281 281 274 271 270 270 270 272
Wind_Speed
13 10 10 10 10 9 8 8 6 7 8 8 8 8 7 7 6 5 5 8 7 6
12 13 12 11 7 6 8 8 9 8 9 8 8 8 7 6 6 6 5 6 7 6
12 11 11 10 10 11 9 10 10 10 9 8 7 7 7 6 6 7 4 4 7 5
12 10 10 10 10 10 10 10 10 10 10 9 9 7 7 5 6 7 6 5 6 6
14 14 14 13 12 10 11 9 10 10 10 9 8 7 8 7 6 7 7 5 6 6
14 14 14 13 11 11 11 9 9 9 10 9 8 7 6 6 6 6 5 5 5 5
14 13 12 12 11 11 11 11 10 8 8 8 8 7 7 8 7 6 5 5 4 4
13 12 12 11 11 10 9 8 9 8 7 7 7 7 8 7 6 6 5 4 5 4
12 12 12 11 10 11 9 8 9 8 9 9 5 14 14 10 7 6 6 5 5 4
14 13 12 12 12 11 11 10 9 9 9 8 6 16 14 13 5 6 5 5 5 5
15 14 13 14 14 12 10 10 10 9 8 7 6 15 15 14 5 5 6 5 5 5
17 16 15 15 14 11 10 9 9 9 9 9 5 17 17 14 7 7 7 6 6 5
16 16 15 14 14 11 10 9 8 8 8 8 8 17 19 15 6 6 5 6 6 12
13 14 13 12 10 11 10 8 9 8 7 8 8 9 20 20 7 7 6 6 5 5
Wind_Direction
157 156 155 155 153 145 146 144 138 122 121 119 114 110 108 105 101 106 104 101 93 95
162 160 160 150 143 139 136 137 132 131 130 123 117 117 109 108 106 94 90 98 97 100
162 158 149 146 149 152 148 143 141 134 130 125 118 116 111 109 115 117 110 106 105 97
158 150 150 152 154 154 145 145 144 142 138 137 134 129 118 117 127 119 117 116 118 115
160 159 161 161 159 153 150 152 150 144 140 143 143 135 134 143 146 138 133 127 119 122
166 165 166 162 157 155 151 149 144 144 150 147 144 144 137 137 133 128 136 140 133 145
171 169 166 158 156 156 157 153 152 153 146 144 142 145 147 145 137 139 138 136 142 155
165 161 155 157 158 148 149 150 150 142 136 140 156 163 154 144 148 143 139 155 176 174
158 155 156 154 152 147 145 146 147 155 156 158 167 173 166 152 152 159 162 174 193 177
156 159 159 151 151 159 163 159 163 160 159 168 162 178 172 169 159 167 182 184 183 198
160 160 159 158 165 163 166 171 169 169 168 160 183 185 188 180 171 178 196 190 194 203
166 166 167 170 171 164 162 172 181 174 170 172 168 197 198 187 175 201 207 205 205 208
171 168 172 170 168 170 177 179 175 174 179 175 178 204 205 194 181 196 206 218 220 225
166 167 167 167 172 168 173 164 178 181 173 177 185 206 212 212 192 203 204 216 219 218